Regional Weather Roundup
Issued by NWS Newport/Morehead, NC

Current Version | Previous Version | Graphics & Text | Print | Product List | Glossary Off
Versions: 1 2 3 4 5 6 7 8 9 10 11 12 13 14 15 16 17 18 19 20 21 22 23 24 25 26 27 28 29 30 31 32 33 34 35 36 37 38 39 40 41 42 43 44 45 46 47 48 49 50

000
ASUS42 KMHX 201122
RWRMHX
WEATHER ROUNDUP FOR EASTERN NORTH CAROLINA
NATIONAL WEATHER SERVICE NEWPORT/MOREHEAD CITY NC
700 AM EDT WED AUG 20 2014

NOTE: "FAIR" INDICATES FEW OR NO CLOUDS BELOW 12,000 FEET
WITH NO SIGNIFICANT WEATHER AND/OR OBSTRUCTIONS TO VISIBILITY

NCZ015>017-031-032-045>047-102-103-201200-
NORTH COAST

CITY           SKY/WX    TMP DP  RH WIND       PRES   REMARKS
EDENTON        CLEAR     71  70  97 N6        29.93R FOG
ELIZABETH CITY PTCLDY    74  72  93 NW7       29.91R
KITTY HAWK     CLOUDY    76  74  92 N6        29.90R
MANTEO         PTCLDY    75  73  94 N6        29.90R

$$

NCZ045>047-081-094-103-104-201200-
CENTRAL COAST

CITY           SKY/WX    TMP DP  RH WIND       PRES   REMARKS
FRISCO         MOCLDY    77  75  93 VRB3      29.89R
SWANQUARTER      N/A     73 N/A N/A VRB1G7    29.88R

$$

NCZ095-097-098-100-101-201200-
SOUTHERN COAST

CITY           SKY/WX    TMP DP  RH WIND       PRES   REMARKS
BEAUFORT       CLOUDY    76  75  97 N9        29.92R FOG
CEDAR ISLAND     N/A     79 N/A N/A N13       29.97R
JACKSONVILLE   PTCLDY    72  71  97 W3        29.93R FOG
NEWPORT        NOT AVBL
PINEY ISLAND   PTSUNNY   79  76  90 NW8       29.90R
WILMINGTON     CLEAR     75  73  93 CALM      29.92R


$$

NCZ011>013-027>030-043-044-078>080-089-090>093-098-201200-
COASTAL PLAIN

CITY           SKY/WX    TMP DP  RH WIND       PRES   REMARKS
AHOSKIE        CLOUDY    69  68  97 N3        29.95R VSB 1/4
CLINTON        FOG       72  72 100 CALM      29.94R VSB 1
ELIZABETHTOWN  CLEAR     73  73 100 CALM      29.93R FOG
GOLDSBORO      CLOUDY    72  72 100 NE5       29.92R FOG
GREENVILLE     RAIN      72  72 100 CALM      29.95R VSB 1/4
HAVELOCK       CLOUDY    75  73  93 NW9       29.93R FOG
KENANSVILLE    CLOUDY    72  70  94 CALM      29.95R FOG
KINSTON        FOG       72  72 100 N3        29.94R VSB 1/8
NEW BERN       FOG       75  73  94 NW5       29.94R VSB 1/2
RICHLANDS      CLOUDY    72  70  94 CALM      29.93R VSB 1/4
ROANOKE RAPIDS NOT AVBL
ROCKY MOUNT    FOG       72  71  97 NE3       29.94R VSB 1/4
WASHINGTON     CLOUDY    71  71  98 CALM      29.93R VSB 1/4
WHITEVILLE     CLEAR     73  71  95 CALM      29.93R FOG

$$

AMZ130-135-150-152-154-156-158-170-250-252-270-ANZ085-086-088-633-658-670-201200-
MARINE OBSERVATIONS

STATION/POSITION TIME  TEMP    WIND        PRES    WAVE   SWELL
                       AIR SEA DIR/SP/G            HT/PER HT/PER
                 (UTC) (F)     (DEG/KT/KT) (MB)    (FT/S) (FT/S)
CHESAPEAKE LIGHT 1100   76      40/ 11/ 12 1013.9
BUOY 44014       1100   77 78   30/ 14/ 16 1011.6    3/ 6   2/ 9
DUCK             1100   77 78   40/ 13/ 15 1011.8
2E DUCK          1100                        N/A     3/ 5
OREGON INLET     1100   77 81   20/  6/  8 1012.1
BUOY 44095       1100      80                N/A     2/ 6
20E OREGON INLET NOT AVBL
HATTERAS CG      1100   79 82  360/  9/ 11 1012.5
DIAMOND BUOY     1100   79     320/  8/ 10 1011.6    3/ 7   3/ 7
CAPE LOOKOUT     1100   78     320/  7/  9 1012.4
BEAUFORT LAB     1100   76 82  320/  5/  7 1012.5
30 SE NEW RIVER  1100   79 81  300/ 12/ 14 1012.0    4/ 7   3/ 7
5 SE WRIGHTSVILL 1000   75 82  320/ 10/ 12   N/A
BUOY 41002       1034   82 81  240/ 19/ 23 1014.4    6/ 5   2/12
BUOY 41004       1100   81 83  270/ 12/ 14 1013.1    4/ 5   2/ 8

$$



USA.gov is the U.S. government's official web portal to all federal, state and local government web resources and services.